#timestamp,LO_Frequency,Hit,StdDev 
1645426815.3,286047000.6,N
1645426835.2,286046998.7,N
1645426855.0,286046999.2,N
1645426855.9,286046999.2,N
1645426875.7,286046997.3,N
1645426895.6,286046997.3,N
1645426915.4,286046997.5,N
1645426935.3,286046998.9,N
1645426955.1,286047002.8,N
1645426956.0,286047002.8,N
1645426975.8,286047001.7,N
1645426995.7,286047001.5,N
1645427015.5,286047004.4,N
1645427035.3,286047004.6,N
1645427055.2,286047002.9,N
1645427075.0,286047000.9,N
1645427075.9,286047000.9,N
1645427095.8,286046998.5,N
1645427115.6,286046996.8,N
1645427135.4,286046995.1,N
1645427155.3,286046995.3,N
1645427175.1,286046996.1,N
1645427195.8,286046995.6,N
1645427215.7,286046995.3,N
1645427235.5,286046996.4,N
1645427255.4,286046996.8,N
1645427275.2,286046997.6,N
1645427295.0,286046991.5,N
1645427295.9,286046991.5,N
1645427315.8,286046990.7,N
1645427335.6,286046989.0,Y
1645427355.5,286046991.3,P
1645427375.3,286046993.8,N
1645427395.1,286046999.6,N
1645427415.9,286046999.3,N
1645427435.7,286047000.3,N
1645427455.5,286047002.9,N
1645427475.4,286047004.8,N
1645427495.2,286047005.5,N
1645427515.0,286047009.2,N
1645427515.9,286047009.2,N
1645427535.8,286047007.3,N
1645427555.6,286047003.8,N
1645427575.5,286047003.9,N
1645427595.3,286047004.2,N
1645427615.1,286047001.5,N
1645427635.9,286046995.5,N
1645427655.7,286046990.3,N
1645427675.5,286046988.9,N
1645427695.4,286046988.5,N
1645427715.2,286046992.4,N
1645427735.1,286046994.5,N
1645427736.0,286046994.5,N
1645427755.8,286046999.2,N
1645427775.6,286047000.1,N
1645427795.5,286047001.9,N
1645427815.3,286047000.6,N
1645427835.1,286047000.8,N
1645427855.9,286046998.8,N
1645427905.8,286046982.1,E
1645427915.7,286046993.0,N
1645427935.5,286047003.9,P
1645427955.3,286046996.7,N
1645427975.2,286046993.6,N
1645427995.0,286046996.4,N
1645427995.9,286046996.4,N
1645428015.8,286046998.2,N
1645428035.6,286047001.4,N
1645428055.4,286047006.5,N
1645428075.3,286047008.7,N
1645428095.1,286047005.0,N
1645428115.8,286047011.3,N
1645428135.7,286047014.7,N
1645428155.5,286047014.7,N
1645428175.4,286047013.5,N
1645428195.2,286047011.1,N
1645428215.0,286047015.5,N
1645428215.9,286047015.5,N
1645428235.8,286047015.4,N
1645428255.6,286047013.9,N
1645428275.4,286047012.8,N
1645428295.3,286047014.3,N
1645428315.1,286047013.4,N
1645428335.9,286047015.2,N
1645428355.7,286047013.3,N
1645428375.5,286047011.0,N
1645428395.4,286047011.0,N
1645428415.2,286047013.7,N
1645428435.0,286047014.1,N
1645428435.9,286047014.1,N
1645428455.8,286047012.1,N
1645428475.6,286047010.2,N
1645428495.5,286047011.2,N
1645428515.3,286047017.3,N
1645428535.1,286047014.1,N
1645428555.9,286047015.3,Y
1645428575.7,286047003.7,P
1645428595.5,286047004.5,N
1645428615.4,286047003.2,N
1645428635.2,286047001.7,N
1645428655.1,286047004.1,N
1645428656.0,286047004.1,N
1645428675.8,286047002.5,N
1645428695.6,286047002.8,N
1645428715.5,286047001.6,N
1645428735.3,286047000.8,N
1645428755.1,286046996.6,N
1645428775.9,286046997.6,N
1645428795.7,286046995.3,N
1645428815.6,286046995.0,N
1645428835.4,286046995.7,N
1645428855.2,286046996.0,N
1645428875.1,286046996.0,N
1645428876.0,286046996.0,N
1645428895.8,286046999.3,N
1645428915.6,286047002.6,N
1645428935.5,286047002.8,N
1645428955.3,286047002.3,N
1645428975.2,286046999.7,N
1645428995.9,286046991.8,N
1645429015.7,286046991.5,N
1645429035.6,286046989.0,N
1645429055.4,286046989.4,N
1645429075.2,286046991.0,N
1645429095.1,286046996.1,N
1645429096.0,286046996.1,N
1645429115.8,286046992.5,N
1645429135.7,286046994.1,N
1645429155.5,286046999.0,N
1645429175.3,286047002.0,N
1645429195.2,286047003.7,N
1645429215.0,286046998.5,N
1645429215.9,286046998.5,N
1645429235.8,286047001.2,N
1645429255.6,286047004.3,N
1645429275.4,286046999.7,N
1645429295.3,286046997.2,N
1645429315.1,286046994.0,N
1645429335.8,286046989.7,N
1645429355.7,286046988.8,N
1645429375.5,286046986.3,N
1645429395.4,286046982.1,Y
1645429415.2,286046989.6,P
1645429435.0,286046989.3,P
1645429435.9,286046989.3,P
1645429455.8,286046986.9,Y
1645429475.6,286046992.6,P
1645429495.4,286046995.2,P
1645429515.3,286047002.6,N
1645429535.1,286047003.0,N
1645429555.9,286047002.9,N
1645429575.7,286047004.8,N
1645429595.5,286047008.9,N
1645429615.4,286047008.0,N
1645429635.2,286047009.6,N
1645429655.0,286047010.6,N
1645429656.0,286047010.6,N
1645429675.8,286047010.7,N
1645429695.6,286047008.5,N
1645429715.5,286047008.1,N
1645429735.3,286047004.6,N
1645429755.1,286047006.5,N
1645429775.9,286047012.8,N
1645429795.7,286047010.5,N
1645429815.5,286047013.9,N
1645429835.4,286047018.0,N
1645429855.2,286047019.0,N
1645429875.1,286047019.8,N
1645429876.0,286047019.8,N
1645429895.8,286047022.8,Y
1645429915.6,286047013.7,P
1645429935.5,286047009.3,P
1645429955.3,286047011.3,P
1645429975.2,286047012.8,Y
1645429995.9,286047007.0,P
1645430015.7,286047006.4,P
1645430035.6,286046999.9,N
1645430055.4,286047002.3,N
1645430075.2,286047005.3,N
1645430095.1,286047004.7,N
1645430096.0,286047004.7,N
1645430115.8,286047003.7,N
1645430135.7,286047004.7,N
1645430155.5,286047002.8,N
1645430175.3,286047002.5,N
1645430195.2,286047000.4,N
1645430215.0,286047000.6,N
1645430215.9,286047000.6,N
1645430235.7,286046999.1,N
1645430255.6,286046991.2,N
1645430275.4,286046986.6,Y
1645430295.3,286046983.0,P
1645430315.1,286046981.6,N
1645430316.0,286046981.6,N
1645430335.8,286046982.0,N
1645430355.7,286046982.8,N
1645430375.5,286046989.5,N
1645430395.3,286046994.8,N
